Find Starlink 30412

NORAD ID: 57854 Int'l Des: 2023-141 Owner: SPXS Country: US Constellation: starlink operational
LEOCIRCULAR

当前视图

正在加载3D地球...

About Starlink 30412

Starlink 30412 (NORAD 57854) is a starlink constellation satellite (v2 mini) launched Sep 12, 2023 by SPXS of US. It operates in LEO, CIRCULAR orbit with a mass of 730.00 kg.

关于 Starlink 30412

正在加载描述...

即将过境

Passes for default location (London). Set your location on the main map for personalized predictions.

高度历史

Loading altitude history...

两行轨道根数

1 57854U 23141Q 26170.26692060 .00000207 00000-0 19126-4 0 9999
2 57854 53.1605 172.0429 0001273 97.7734 262.3411 15.30189425155880
Epoch: Jun 19, 2026 • Age: 13 hours

当前状态

高度 475.1 km
速度 7.63 km/s
星下点 17.79°N, 133.13°E
发射日期 Sep 12, 2023
运行时间 2.7 years
类型 internet

技术详情

分类 Payload
质量 730.00 kg
干质量 700.00 kg
总质量 730.00 kg
长度 0.30 m
直径 4.10 m
跨度 29.00 m
形状 Box + pan
制造商 SPXS
平台类型 Starlink V2M
阶段状态 In Orbit
所有者/国家 SPXS/US

Most Searched